Time,TemperatureF,DewpointF,PressureIn,WindDirection,WindDirectionDegrees,WindSpeedMPH,WindSpeedGustMPH,Humidity,HourlyPrecipIn,Conditions,Clouds,dailyrainin,SoftwareType,DateUTC
2013-02-05 00:01:00,45.0,40.0,30.17,ENE,67,0.0,0.0,82,0.00,,,0.00,,2013-02-05 08:01:00,
2013-02-05 00:11:00,45.0,40.0,30.17,ENE,67,0.0,0.0,82,0.00,,,0.00,,2013-02-05 08:11:00,
2013-02-05 00:21:00,46.0,41.0,30.17,SW,216,0.0,4.0,83,0.00,,,0.00,,2013-02-05 08:21:00,
2013-02-05 00:31:00,47.0,42.0,30.14,SW,223,0.0,5.0,84,0.00,,,0.00,,2013-02-05 08:31:00,
2013-02-05 00:41:00,47.0,42.0,30.14,SW,223,0.0,5.0,84,0.00,,,0.00,,2013-02-05 08:41:00,
2013-02-05 00:52:00,47.0,43.0,30.17,SW,223,0.0,0.0,85,0.00,,,0.00,,2013-02-05 08:52:00,
2013-02-05 01:02:00,47.0,43.0,30.17,SW,223,0.0,0.0,85,0.00,,,0.00,,2013-02-05 09:02:00,
2013-02-05 01:11:00,47.0,43.0,30.14,SW,223,0.0,2.0,85,0.00,,,0.00,,2013-02-05 09:11:00,
2013-02-05 01:21:00,47.0,43.0,30.14,SW,223,0.0,2.0,85,0.00,,,0.00,,2013-02-05 09:21:00,
2013-02-05 01:31:00,47.0,43.0,30.14,West,267,0.0,5.0,85,0.00,,,0.00,,2013-02-05 09:31:00,
2013-02-05 01:41:00,47.0,43.0,30.14,West,267,0.0,5.0,85,0.00,,,0.00,,2013-02-05 09:41:00,
2013-02-05 01:52:00,47.0,43.0,30.17,SW,230,0.0,0.0,85,0.00,,,0.00,,2013-02-05 09:52:00,
2013-02-05 02:01:00,47.0,42.0,30.17,SW,219,0.0,5.0,84,0.00,,,0.00,,2013-02-05 10:01:00,
2013-02-05 02:11:00,47.0,42.0,30.17,SW,219,0.0,2.0,84,0.00,,,0.00,,2013-02-05 10:11:00,
2013-02-05 02:21:00,47.0,42.0,30.17,SW,219,0.0,2.0,84,0.00,,,0.00,,2013-02-05 10:21:00,
2013-02-05 02:31:00,47.0,42.0,30.17,SW,219,0.0,4.0,83,0.00,,,0.00,,2013-02-05 10:31:00,
2013-02-05 02:42:00,47.0,42.0,30.17,SW,219,0.0,4.0,83,0.00,,,0.00,,2013-02-05 10:42:00,
2013-02-05 02:52:00,47.0,42.0,30.17,SW,219,0.0,4.0,82,0.00,,,0.00,,2013-02-05 10:52:00,
2013-02-05 03:01:00,47.0,41.0,30.14,SW,219,0.0,4.0,80,0.00,,,0.00,,2013-02-05 11:01:00,
2013-02-05 03:11:00,47.0,41.0,30.14,SW,219,0.0,4.0,80,0.00,,,0.00,,2013-02-05 11:11:00,
2013-02-05 03:21:00,47.0,41.0,30.14,SW,236,0.0,3.0,79,0.00,,,0.00,,2013-02-05 11:21:00,
2013-02-05 03:31:00,47.0,40.0,30.14,SW,236,0.0,3.0,77,0.00,,,0.00,,2013-02-05 11:31:00,
2013-02-05 03:41:00,47.0,40.0,30.14,SW,236,0.0,3.0,77,0.00,,,0.00,,2013-02-05 11:41:00,
2013-02-05 03:52:00,47.0,40.0,30.14,SW,236,0.0,0.0,76,0.00,,,0.00,,2013-02-05 11:52:00,
2013-02-05 04:01:00,47.0,39.0,30.14,SW,236,0.0,2.0,75,0.00,,,0.00,,2013-02-05 12:01:00,
2013-02-05 04:12:00,47.0,39.0,30.14,SW,236,0.0,2.0,75,0.00,,,0.00,,2013-02-05 12:12:00,
2013-02-05 04:21:00,47.0,39.0,30.14,SW,236,0.0,3.0,74,0.00,,,0.00,,2013-02-05 12:21:00,
2013-02-05 04:31:00,47.0,39.0,30.14,WSW,248,0.0,4.0,73,0.00,,,0.00,,2013-02-05 12:31:00,
2013-02-05 04:41:00,47.0,39.0,30.14,WSW,248,0.0,4.0,73,0.00,,,0.00,,2013-02-05 12:41:00,
2013-02-05 04:52:00,47.0,38.0,30.14,WSW,248,3.0,5.0,71,0.00,,,0.00,,2013-02-05 12:52:00,
2013-02-05 05:01:00,47.0,38.0,30.14,WSW,248,0.0,4.0,70,0.00,,,0.00,,2013-02-05 13:01:00,
2013-02-05 05:11:00,47.0,38.0,30.14,WSW,248,0.0,4.0,70,0.00,,,0.00,,2013-02-05 13:11:00,
2013-02-05 05:21:00,47.0,38.0,30.14,WSW,248,0.0,3.0,70,0.00,,,0.00,,2013-02-05 13:21:00,
2013-02-05 05:31:00,47.0,37.0,30.14,WSW,248,0.0,4.0,69,0.00,,,0.00,,2013-02-05 13:31:00,
2013-02-05 05:41:00,47.0,37.0,30.14,WSW,248,0.0,4.0,69,0.00,,,0.00,,2013-02-05 13:41:00,
2013-02-05 05:52:00,47.0,37.0,30.14,WSW,250,0.0,2.0,68,0.00,,,0.00,,2013-02-05 13:52:00,
2013-02-05 06:01:00,47.0,37.0,30.11,SW,236,0.0,6.0,68,0.00,,,0.00,,2013-02-05 14:01:00,
2013-02-05 06:12:00,47.0,37.0,30.11,SW,236,0.0,6.0,68,0.00,,,0.00,,2013-02-05 14:12:00,
2013-02-05 06:21:00,47.0,37.0,30.14,SW,224,4.0,4.0,67,0.00,,,0.00,,2013-02-05 14:21:00,
2013-02-05 06:31:00,47.0,36.0,30.14,SW,236,2.0,6.0,66,0.00,,,0.00,,2013-02-05 14:31:00,
2013-02-05 06:41:00,47.0,36.0,30.14,SW,236,2.0,6.0,66,0.00,,,0.00,,2013-02-05 14:41:00,
2013-02-05 06:52:00,47.0,36.0,30.14,SW,236,0.0,4.0,66,0.00,,,0.00,,2013-02-05 14:52:00,
2013-02-05 07:01:00,47.0,36.0,30.14,SW,236,2.0,0.0,65,0.00,,,0.00,,2013-02-05 15:01:00,
2013-02-05 07:11:00,47.0,36.0,30.14,SW,236,2.0,0.0,65,0.00,,,0.00,,2013-02-05 15:11:00,
2013-02-05 07:21:00,47.0,35.0,30.14,SW,226,3.0,5.0,64,0.00,,,0.00,,2013-02-05 15:21:00,
2013-02-05 07:32:00,47.0,35.0,30.14,SW,225,0.0,4.0,63,0.00,,,0.00,,2013-02-05 15:32:00,
2013-02-05 07:41:00,47.0,35.0,30.14,SW,225,0.0,4.0,63,0.00,,,0.00,,2013-02-05 15:41:00,
2013-02-05 07:52:00,47.0,35.0,30.14,SW,234,0.0,4.0,62,0.00,,,0.00,,2013-02-05 15:52:00,
2013-02-05 08:01:00,47.0,34.0,30.14,South,170,0.0,4.0,61,0.00,,,0.00,,2013-02-05 16:01:00,
2013-02-05 08:11:00,47.0,34.0,30.14,South,170,0.0,4.0,61,0.00,,,0.00,,2013-02-05 16:11:00,
2013-02-05 08:22:00,48.0,35.0,30.17,SW,236,0.0,3.0,60,0.00,,,0.00,,2013-02-05 16:22:00,
2013-02-05 08:32:00,48.0,33.0,30.17,WSW,244,2.0,5.0,56,0.00,,,0.00,,2013-02-05 16:32:00,
2013-02-05 08:41:00,48.0,33.0,30.17,WSW,244,2.0,5.0,56,0.00,,,0.00,,2013-02-05 16:41:00,
2013-02-05 08:52:00,49.0,33.0,30.17,SW,214,0.0,7.0,54,0.00,,,0.00,,2013-02-05 16:52:00,
2013-02-05 09:01:00,49.0,33.0,30.17,NNE,22,0.0,5.0,53,0.00,,,0.00,,2013-02-05 17:01:00,
2013-02-05 09:11:00,49.0,33.0,30.17,NNE,22,0.0,5.0,53,0.00,,,0.00,,2013-02-05 17:11:00,
2013-02-05 09:21:00,50.0,33.0,30.17,SW,232,4.0,4.0,52,0.00,,,0.00,,2013-02-05 17:21:00,
2013-02-05 09:32:00,51.0,33.0,30.17,South,172,3.0,4.0,50,0.00,,,0.00,,2013-02-05 17:32:00,
2013-02-05 09:41:00,51.0,33.0,30.17,South,172,3.0,4.0,50,0.00,,,0.00,,2013-02-05 17:41:00,
2013-02-05 09:52:00,51.0,31.0,30.17,WSW,256,3.0,7.0,47,0.00,,,0.00,,2013-02-05 17:52:00,
2013-02-05 10:01:00,53.0,32.0,30.17,East,100,3.0,8.0,45,0.00,,,0.00,,2013-02-05 18:01:00,
2013-02-05 10:11:00,53.0,32.0,30.17,East,100,3.0,8.0,45,0.00,,,0.00,,2013-02-05 18:11:00,
2013-02-05 10:21:00,56.0,31.0,30.16,South,179,0.0,5.0,39,0.00,,,0.00,,2013-02-05 18:21:00,
2013-02-05 10:31:00,56.0,31.0,30.16,SSW,213,0.0,4.0,38,0.00,,,0.00,,2013-02-05 18:31:00,
2013-02-05 10:42:00,56.0,31.0,30.16,SSW,213,0.0,4.0,38,0.00,,,0.00,,2013-02-05 18:42:00,
2013-02-05 10:52:00,55.0,31.0,30.16,SW,221,4.0,8.0,39,0.00,,,0.00,,2013-02-05 18:52:00,
2013-02-05 11:01:00,55.0,31.0,30.16,SSW,208,3.0,8.0,39,0.00,,,0.00,,2013-02-05 19:01:00,
2013-02-05 11:21:00,55.0,31.0,30.16,West,259,4.0,6.0,39,0.00,,,0.00,,2013-02-05 19:21:00,
2013-02-05 11:31:00,54.0,30.0,30.17,WSW,254,2.0,6.0,40,0.00,,,0.00,,2013-02-05 19:31:00,
2013-02-05 11:42:00,54.0,30.0,30.17,WSW,254,2.0,6.0,40,0.00,,,0.00,,2013-02-05 19:42:00,
2013-02-05 11:52:00,55.0,31.0,30.16,SW,223,7.0,8.0,40,0.00,,,0.00,,2013-02-05 19:52:00,
2013-02-05 12:01:00,56.0,31.0,30.16,West,259,3.0,8.0,39,0.00,,,0.00,,2013-02-05 20:01:00,
2013-02-05 12:11:00,56.0,31.0,30.16,West,259,3.0,8.0,39,0.00,,,0.00,,2013-02-05 20:11:00,
2013-02-05 12:21:00,57.0,32.0,30.16,SW,235,4.0,6.0,38,0.00,,,0.00,,2013-02-05 20:21:00,
2013-02-05 12:31:00,57.0,32.0,30.16,SSE,160,0.0,9.0,38,0.00,,,0.00,,2013-02-05 20:31:00,
2013-02-05 12:41:00,57.0,32.0,30.16,SSE,160,0.0,9.0,38,0.00,,,0.00,,2013-02-05 20:41:00,
2013-02-05 12:52:00,57.0,32.0,30.16,WNW,298,0.0,9.0,38,0.00,,,0.00,,2013-02-05 20:52:00,
2013-02-05 13:01:00,56.0,31.0,30.14,West,276,4.0,8.0,39,0.00,,,0.00,,2013-02-05 21:01:00,
2013-02-05 13:21:00,57.0,32.0,30.14,WSW,251,3.0,9.0,39,0.00,,,0.00,,2013-02-05 21:21:00,
2013-02-05 13:31:00,58.0,33.0,30.14,South,186,0.0,8.0,39,0.00,,,0.00,,2013-02-05 21:31:00,
2013-02-05 13:41:00,58.0,33.0,30.14,South,186,0.0,8.0,39,0.00,,,0.00,,2013-02-05 21:41:00,
2013-02-05 13:52:00,60.0,33.0,30.14,South,191,3.0,6.0,36,0.00,,,0.00,,2013-02-05 21:52:00,
2013-02-05 14:01:00,61.0,33.0,30.13,SW,224,0.0,6.0,35,0.00,,,0.00,,2013-02-05 22:01:00,
2013-02-05 14:21:00,59.0,32.0,30.14,SSE,151,2.0,8.0,36,0.00,,,0.00,,2013-02-05 22:21:00,
2013-02-05 14:31:00,59.0,32.0,30.14,South,190,3.0,8.0,36,0.00,,,0.00,,2013-02-05 22:31:00,
2013-02-05 14:41:00,59.0,32.0,30.14,South,190,3.0,8.0,36,0.00,,,0.00,,2013-02-05 22:41:00,
2013-02-05 14:52:00,60.0,33.0,30.11,WSW,240,2.0,6.0,36,0.00,,,0.00,,2013-02-05 22:52:00,
2013-02-05 15:01:00,60.0,33.0,30.11,SSW,197,4.0,6.0,36,0.00,,,0.00,,2013-02-05 23:01:00,
2013-02-05 15:21:00,58.0,33.0,30.11,West,259,0.0,8.0,39,0.00,,,0.00,,2013-02-05 23:21:00,
2013-02-05 15:31:00,58.0,34.0,30.14,South,176,2.0,5.0,40,0.00,,,0.00,,2013-02-05 23:31:00,
2013-02-05 15:41:00,58.0,34.0,30.14,South,176,2.0,5.0,40,0.00,,,0.00,,2013-02-05 23:41:00,
2013-02-05 15:52:00,58.0,34.0,30.14,WSW,238,4.0,5.0,40,0.00,,,0.00,,2013-02-05 23:52:00,
2013-02-05 16:01:00,59.0,34.0,30.14,SSW,212,0.0,5.0,39,0.00,,,0.00,,2013-02-06 00:01:00,
2013-02-05 16:21:00,58.0,33.0,30.14,WSW,253,3.0,9.0,39,0.00,,,0.00,,2013-02-06 00:21:00,
2013-02-05 16:31:00,58.0,34.0,30.14,WSW,252,4.0,4.0,40,0.00,,,0.00,,2013-02-06 00:31:00,
2013-02-05 16:41:00,58.0,34.0,30.14,WSW,252,4.0,4.0,40,0.00,,,0.00,,2013-02-06 00:41:00,
2013-02-05 16:51:00,57.0,35.0,30.14,WSW,252,3.0,6.0,43,0.00,,,0.00,,2013-02-06 00:51:00,
2013-02-05 17:01:00,56.0,36.0,30.14,WNW,289,3.0,4.0,46,0.00,,,0.00,,2013-02-06 01:01:00,
2013-02-05 17:21:00,55.0,36.0,30.14,WNW,294,0.0,4.0,48,0.00,,,0.00,,2013-02-06 01:21:00,
2013-02-05 17:32:00,55.0,36.0,30.14,South,185,0.0,4.0,49,0.00,,,0.00,,2013-02-06 01:32:00,
2013-02-05 17:41:00,55.0,36.0,30.14,South,185,0.0,4.0,49,0.00,,,0.00,,2013-02-06 01:41:00,
2013-02-05 17:52:00,53.0,35.0,30.14,SW,236,0.0,5.0,51,0.00,,,0.00,,2013-02-06 01:52:00,
2013-02-05 18:01:00,53.0,36.0,30.14,SW,236,0.0,0.0,53,0.00,,,0.00,,2013-02-06 02:01:00,
2013-02-05 18:21:00,51.0,35.0,30.14,SW,236,0.0,0.0,55,0.00,,,0.00,,2013-02-06 02:21:00,
2013-02-05 18:31:00,50.0,35.0,30.14,SW,236,0.0,0.0,57,0.00,,,0.00,,2013-02-06 02:31:00,
2013-02-05 18:41:00,50.0,35.0,30.14,SW,236,0.0,0.0,57,0.00,,,0.00,,2013-02-06 02:41:00,
2013-02-05 18:52:00,50.0,37.0,30.14,SSW,206,2.0,0.0,60,0.00,,,0.00,,2013-02-06 02:52:00,
2013-02-05 19:02:00,50.0,38.0,30.14,SSW,211,0.0,4.0,63,0.00,,,0.00,,2013-02-06 03:02:00,
2013-02-05 19:11:00,50.0,38.0,30.14,SSW,211,0.0,4.0,63,0.00,,,0.00,,2013-02-06 03:11:00,
2013-02-05 19:21:00,50.0,38.0,30.14,SW,214,2.0,7.0,64,0.00,,,0.00,,2013-02-06 03:21:00,
2013-02-05 19:31:00,50.0,39.0,30.14,NNE,13,3.0,5.0,65,0.00,,,0.00,,2013-02-06 03:31:00,
2013-02-05 19:42:00,50.0,39.0,30.14,NNE,13,3.0,5.0,65,0.00,,,0.00,,2013-02-06 03:42:00,
2013-02-05 19:52:00,49.0,38.0,30.17,NE,42,0.0,4.0,65,0.00,,,0.00,,2013-02-06 03:52:00,
2013-02-05 20:01:00,48.0,37.0,30.17,SW,234,3.0,4.0,66,0.00,,,0.00,,2013-02-06 04:01:00,
2013-02-05 20:11:00,48.0,37.0,30.17,SW,234,3.0,4.0,66,0.00,,,0.00,,2013-02-06 04:11:00,
2013-02-05 20:21:00,48.0,38.0,30.17,NE,51,0.0,6.0,69,0.00,,,0.00,,2013-02-06 04:21:00,
2013-02-05 20:31:00,47.0,38.0,30.17,ENE,68,0.0,3.0,71,0.00,,,0.00,,2013-02-06 04:31:00,
2013-02-05 20:41:00,47.0,38.0,30.17,ENE,68,0.0,3.0,71,0.00,,,0.00,,2013-02-06 04:41:00,
2013-02-05 20:52:00,47.0,38.0,30.17,NE,44,0.0,0.0,71,0.00,,,0.00,,2013-02-06 04:52:00,
2013-02-05 21:01:00,47.0,39.0,30.17,SSW,197,0.0,0.0,73,0.00,,,0.00,,2013-02-06 05:01:00,
2013-02-05 21:11:00,47.0,39.0,30.17,SSW,197,0.0,0.0,73,0.00,,,0.00,,2013-02-06 05:11:00,
2013-02-05 21:22:00,46.0,38.0,30.17,SSW,197,0.0,0.0,74,0.00,,,0.00,,2013-02-06 05:22:00,
2013-02-05 21:31:00,46.0,39.0,30.20,SSW,197,0.0,0.0,76,0.00,,,0.00,,2013-02-06 05:31:00,
2013-02-05 21:41:00,46.0,39.0,30.20,SSW,197,0.0,0.0,76,0.00,,,0.00,,2013-02-06 05:41:00,
2013-02-05 21:52:00,45.0,38.0,30.20,SSW,197,0.0,0.0,76,0.00,,,0.00,,2013-02-06 05:52:00,
2013-02-05 22:01:00,45.0,38.0,30.20,SSW,197,0.0,0.0,76,0.00,,,0.00,,2013-02-06 06:01:00,
2013-02-05 22:11:00,45.0,38.0,30.20,SSW,197,0.0,0.0,76,0.00,,,0.00,,2013-02-06 06:11:00,
2013-02-05 22:21:00,43.0,36.0,30.20,SW,218,0.0,3.0,76,0.00,,,0.00,,2013-02-06 06:21:00,
2013-02-05 22:31:00,43.0,36.0,30.20,SW,218,0.0,3.0,76,0.00,,,0.00,,2013-02-06 06:31:00,
2013-02-05 22:42:00,43.0,36.0,30.20,SW,218,0.0,3.0,76,0.00,,,0.00,,2013-02-06 06:42:00,
2013-02-05 22:52:00,43.0,36.0,30.20,SW,226,0.0,4.0,77,0.00,,,0.00,,2013-02-06 06:52:00,
2013-02-05 23:01:00,43.0,37.0,30.20,SW,224,0.0,4.0,78,0.00,,,0.00,,2013-02-06 07:01:00,
2013-02-05 23:11:00,43.0,37.0,30.20,SW,224,0.0,4.0,78,0.00,,,0.00,,2013-02-06 07:11:00,
2013-02-05 23:21:00,42.0,36.0,30.20,SW,224,0.0,4.0,79,0.00,,,0.00,,2013-02-06 07:21:00,
2013-02-05 23:32:00,42.0,36.0,30.20,SW,224,0.0,0.0,80,0.00,,,0.00,,2013-02-06 07:32:00,
2013-02-05 23:41:00,42.0,36.0,30.20,SW,224,0.0,0.0,80,0.00,,,0.00,,2013-02-06 07:41:00,
2013-02-05 23:52:00,42.0,36.0,30.20,SW,224,0.0,0.0,80,0.00,,,0.00,,2013-02-06 07:52:00,